{"data":{"norad_id":53719,"epoch":"2026-09-20T21:07:21.327744Z","epoch_age_seconds":48851,"freshness":"FRESH","line1":"1 53719U 22107V   26263.88010796  .00001250  00000+0  48128-4 0  9999","line2":"2 53719  53.1615  60.0323 0001351  82.3156 277.8000 15.34390094224401","mean_motion":15.34390094,"eccentricity":0.0001351,"inclination_deg":53.1615,"raan_deg":60.0323,"arg_perigee_deg":82.3156,"mean_anomaly_deg":277.8,"bstar":4.8128e-5,"rev_number":22440,"period_min":93.848363961088,"perigee_km":461.80848159092,"apogee_km":463.65688457929,"semimajor_km":6840.8696830851,"source":"CELESTRAK","updated_at":"2026-09-21T09:00:32.985034Z"}}